{"data":{"norad_id":65297,"intl_designator":"2025-185A","name":"DRESDEN","alt_names":[],"object_type":"PAYLOAD","status":"ACTIVE","operator":null,"country":"RWA","launch_date":"2025-08-23","launch_site_code":"RLLB","launch_vehicle":null,"mission":null,"orbit_class":"UNKNOWN","rcs_meters":null,"size_class":null,"mass_kg":null,"dimensions":null,"purposes":[],"wikipedia_slug":null,"has_3d_model":false,"image_url":null,"decayed_at":null,"tle_current":{"epoch":"2026-09-21T19:30:41.433984Z","epoch_age_seconds":48892,"freshness":"FRESH","line1":"1 65297U 25185A   26264.81297956  .00004799  00000+0  62653-3 0  9990","line2":"2 65297  97.9618 347.3428 0015000 134.4733 225.7708 14.80893934 58129","mean_motion":14.80893934,"eccentricity":0.0015,"inclination_deg":97.9618,"raan_deg":347.3428,"arg_perigee_deg":134.4733,"mean_anomaly_deg":225.7708,"bstar":0.00062653,"rev_number":5812,"period_min":97.238564284645,"perigee_km":615.99687781335,"apogee_km":637.01080033057,"semimajor_km":7004.640839072,"source":"CELESTRAK","updated_at":"2026-09-22T09:00:30.254442Z"}}}